Terminal Aerodrome Forecast
Issued by NWS Sterling, VA

Current Version | Previous Version | Graphics & Text | Print | Product List | Glossary On
Versions: 1 2 3 4 5 6 7 8 9 10 11 12 13 14 15 16 17 18 19 20 21 22 23 24 25 26 27 28 29 30 31 32 33 34
000
FTUS41 KLWX 271135
TAFIAD
TAF
KIAD 271135Z 2712/2818 00000KT P6SM BKN150
     FM271600 20006KT P6SM VCTS BKN060CB
     FM280000 18005KT P6SM BKN100
     FM280700 VRB03KT P6SM FEW050 SCT140=

USA.gov is the U.S. government's official web portal to all federal, state and local government web resources and services.